Regional Weather Roundup
Issued by NWS Northern Indiana

Home | Current Version | Previous Version | Text Only | Print | Product List | Glossary Off
Versions: 1 2 3 4 5 6 7 8 9 10 11 12 13 14 15 16 17 18 19 20 21 22 23 24 25 26 27 28 29 30 31 32 33 34 35 36 37 38 39 40 41 42 43 44 45 46 47 48 49 50

000
ASUS43 KIWX 210700
RWRIWX

KIWX WEATHER ROUNDUP
NATIONAL WEATHER SERVICE NORTHERN INDIANA
200 AM EST SUN JAN 21 2018

NOTE: "FAIR" INDICATES FEW OR NO CLOUDS BELOW 12,000 FEET WITH NO
SIGNIFICANT WEATHER AND/OR OBSTRUCTIONS TO VISIBILITY.

* THESE STATIONS ARE NOT UNDER NWS QUALITY CONTROL. THEY ALSO MAY NOT
  REPORT WEATHER SUCH AS PRECIPITATION OR FOG.

INZ001>027-210800-
NORTHERN INDIANA

CITY           SKY/WX    TMP DP  RH WIND       PRES   REMARKS
KNOX*          CLOUDY    36  32  87 CALM      30.02S
SOUTH BEND     CLOUDY    36  33  89 S6        30.03S
GOSHEN         CLOUDY    37  35  92 SW5       30.02F
MONTICELLO*    CLOUDY    38  37  95 SW6       30.02F FOG
FORT WAYNE     DRIZZLE   38  37  97 S5        30.05S FOG
PERU/GRISSOM   CLOUDY    39  39 100 SW8       30.03S FOG

$$
INZ028>050-210800-
CENTRAL INDIANA

CITY           SKY/WX    TMP DP  RH WIND       PRES   REMARKS
LAFAYETTE      FOG       39  39 100 S3        30.03F VSB 3/4
MUNCIE*        CLOUDY    42  40  92 S7        30.05F FOG
INDIANAPOLIS   FOG       39  39 100 SE3       30.06F VSB 1/4

$$
MIZ043>046-050>051-056>058-064>065-071>073-077>080-210800-
SOUTHWEST LOWER MICHIGAN

CITY           SKY/WX    TMP DP  RH WIND       PRES   REMARKS
BATTLE CREEK   CLOUDY    35  35 100 SW5       30.02F FOG     WCI  31
BENTON HARBOR  CLOUDY    38  34  85 S3        30.02S
COLDWATER*     CLOUDY    36  36 100 CALM      30.03R FOG
HILLSDALE*     CLOUDY    36  34  93 CALM      30.02S FOG
HOLLAND        CLOUDY    37  34  89 S7        30.01F FOG
GRAND RAPIDS   CLOUDY    34  31  88 S5        30.00F FOG     WCI  30
KALAMAZOO      CLOUDY    37  35  92 CALM      30.02F FOG
THREE RIVERS*  CLOUDY    37  36  97 CALM      30.03S FOG

$$
OHZ001>008-015>018-024>025-210800-
NORTHWEST OHIO

CITY           SKY/WX    TMP DP  RH WIND       PRES   REMARKS
DEFIANCE       CLOUDY    37  35  92 SW5       30.05S FOG
FINDLAY        CLOUDY    38  33  82 S8        30.05F
TOLEDO EXPRESS CLOUDY    38  38 100 SW6       30.06R FOG
TOLEDO METCALF CLOUDY    37  35  92 SW3       30.07S FOG
LIMA           CLOUDY    39  31  72 S10       30.05F HAZE

$$
AND FOR LAKE MICHIGAN COASTAL AND OPEN LAKE BUOY OBSERVATIONS

STATION/POSITION TEMP    WIND        PRES    VSBY  WAVE
                 AIR SEA DIR/SP/G                  HT/PER
                 (F)     (DEG/KT/KT) (MB)    (MI)  (FT/S)
CALUMET HARBOR    39     170/  7/ 10 1015.2F
MICHIGAN CITY     38     160/  8/ 10   N/A
BURNS HARBOR      38     180/ 10/ 12 1016.9S
SAINT JOSEPH      38     150/  4/  7 1017.3

$$
&&




USA.gov is the U.S. government's official web portal to all federal, state and local government web resources and services.